Weather in Pinayevy Gorki

Russia / Novgorod Oblast     57°39′34″N   31°36′10″E
temp.,
°C
wind,
m/s
gust,
m/s
humid.,
%
clouds,
%
prec.,
mm/h
press.,
hPa
HPBL,
m
3 march, wed
wed300:000nw4119023 0.1 1019502
03:00−1wnw4109112 0.1 1020409
06:00−2w399526 0.0 1019430
09:000w598762 0.0 1019661
12:00+1w5982100 0.0 1017730
15:00+3w5107299 0.0 10151130
18:00+2w51284100 0.0 1011831
21:00+2w51485100 0.0 1008800
4 march, thu
thu400:00+3w61387100 0.2 1005991
03:00+2wnw51289100 0.3 1005904
06:00−1nw398381 0.3 1004451
09:00−2nw377590 0.3 1004496
12:000nnw246251 0.0 1003777
15:00+1nnw245832 0.0 10021195
18:00−1nw247519 0.2 1003125
21:00−2nnw598057 0.4 1004777
5 march, fri
fri500:00−4nnw487799 0.0 1005803
03:00−4nw4776100 0.1 1007887
06:00−5nw377899 0.0 1008874
09:00−5nw477499 0.1 1009938
12:00−4nw356297 0.1 10101141
15:00−4nw355598 0.1 10121402
18:00−4nw3563100 0.1 10131053
21:00−6nnw3679100 0.2 1016721
6 march, sat
sat600:00−6n3678100 0.1 1017745
03:00−8nnw158161 0.1 1018351
06:00−8w25880 0.0 1019211
09:00−7w368132 0.0 1019436
12:00−4w356686 0.0 10181005
15:00−2wsw485689 0.0 10161463
18:00−3sw41156100 0.0 10121358
21:00−4sw71685100 0.3 10071466
7 march, sun
sun700:00−2wsw81785100 0.8 10011414
03:00−2wsw71690100 1.3 9961206
06:00−3nw81670100 2.1 9941456
09:00−6wsw4125267 2.1 9951558
12:00−5wnw71269100 1.1 9941732
15:00−5w7146097 1.6 9941918
18:00−6wnw81582100 0.3 9951367
21:00−6nnw61278100 0.8 9981390